Date String (YYYY-MM-DD hh:mm:ss) UTC,Instrument flags,absolute air pressure of the measurement (hPa),sample flow rate (lpm),inlet stack bypass flow (lpm),air temperature of the measurement (°C),ambient temperature measured by the external sensor (°C),aerosol sample conditioner tube jacket temperature (°C),OPC LED temperature (°C),internal box temperature (°C),relative humidity of the measurement (%),span deviation,mass concentration of particles derived from Lorenz-Mie calculation of OPC scattering (μg/m³),mass concentration of particles derived from Lorenz-Mie calculation of OPC scattering (μg/m³),mass concentration of particles derived from Lorenz-Mie calculation of OPC scattering (μg/m³)
DateTimeUTC,F1_M11,P_M11,Q1_M11,Q2_M11,T1_M11,T2_M11,T3_M11,T4_M11,T5_M11,U1_M11,ZSPAN_M11,X0_M11,X2_M11,X1_M11
2024-03-11 14:00:00,SystemResetWarning,0825.6,5.00,000.00,019.6,018.9,000.0,028.1,021.3,07.6,0000.0,0016.41,0005.30,0002.22
2024-03-11 14:01:00,SystemResetWarning,0825.7,5.00,000.00,019.6,018.9,000.0,028.1,021.3,07.4,0000.0,0015.46,0005.31,0002.22
2024-03-11 14:02:00,SystemResetWarning,0825.7,5.00,000.00,019.6,018.8,000.0,028.1,021.3,07.3,0000.0,0014.99,0005.28,0002.22
2024-03-11 14:03:00,SystemResetWarning,0825.8,5.00,000.00,019.6,018.8,000.0,028.1,021.3,07.4,0000.0,0014.90,0005.28,0002.21
2024-03-11 14:04:00,SystemResetWarning,0825.7,5.00,000.00,019.6,018.8,000.0,028.1,021.3,07.7,0000.0,0015.08,0005.27,0002.20
2024-03-11 14:05:00,SystemResetWarning,0825.7,5.00,000.00,019.6,018.8,000.0,028.1,021.3,07.5,0000.0,0015.67,0005.29,0002.19
2024-03-11 14:06:00,SystemResetWarning,0825.7,5.00,000.00,019.5,018.8,000.0,028.1,021.3,07.5,0000.0,0015.39,0005.28,0002.19
2024-03-11 14:07:00,SystemResetWarning,0825.7,5.00,000.00,019.5,018.8,000.0,028.1,021.3,07.4,0000.0,0015.92,0005.28,0002.18
2024-03-11 14:08:00,SystemResetWarning,0825.7,5.00,000.00,019.5,018.8,000.0,028.1,021.3,07.4,0000.0,0015.51,0005.27,0002.20
2024-03-11 14:09:00,SystemResetWarning,0825.8,5.00,000.00,019.5,018.8,000.0,028.1,021.3,07.5,0000.0,0015.06,0005.28,0002.20
2024-03-11 14:10:00,SystemResetWarning,0825.8,5.00,000.00,019.5,018.8,000.0,028.1,021.3,07.5,0000.0,0016.08,0005.23,0002.18
2024-03-11 14:11:00,SystemResetWarning,0825.9,5.01,000.00,019.5,018.7,000.0,028.0,021.2,07.6,0000.0,0016.77,0005.20,0002.19
2024-03-11 14:12:00,SystemResetWarning,0825.9,5.00,000.00,019.5,018.7,000.0,028.0,021.2,07.7,0000.0,0016.91,0005.29,0002.19
2024-03-11 14:13:00,SystemResetWarning,0825.9,4.99,000.00,019.5,018.7,000.0,028.0,021.2,08.0,0000.0,0017.18,0005.34,0002.21
2024-03-11 14:14:00,SystemResetWarning,0825.9,5.00,000.00,019.5,018.7,000.0,028.0,021.2,08.6,0000.0,0017.01,0005.27,0002.20
2024-03-11 14:15:00,SystemResetWarning,0825.9,5.00,000.00,019.5,018.7,000.0,028.0,021.2,08.4,0000.0,0016.77,0005.20,0002.20
2024-03-11 14:16:00,SystemResetWarning,0825.9,4.99,000.00,019.5,018.7,000.0,028.0,021.2,08.0,0000.0,0016.73,0005.15,0002.20
2024-03-11 14:17:00,SystemResetWarning,0825.9,5.00,000.00,019.5,018.7,000.0,028.0,021.2,07.8,0000.0,0016.57,0005.11,0002.20
2024-03-11 14:18:00,SystemResetWarning,0825.9,5.00,000.00,019.5,018.7,000.0,028.0,021.2,07.8,0000.0,0016.50,0005.11,0002.21
2024-03-11 14:19:00,SystemResetWarning,0825.9,5.00,000.00,019.5,018.8,000.0,028.0,021.2,07.7,0000.0,0017.26,0005.11,0002.18
2024-03-11 14:20:00,SystemResetWarning,0825.9,5.00,000.00,019.5,018.8,000.0,028.0,021.2,07.7,0000.0,0018.23,0005.14,0002.19
2024-03-11 14:21:00,SystemResetWarning,0825.9,5.00,000.00,019.5,018.8,000.0,028.0,021.2,07.6,0000.0,0017.37,0005.14,0002.18
2024-03-11 14:22:00,SystemResetWarning,0825.9,5.00,000.00,019.5,018.8,000.0,028.0,021.2,07.5,0000.0,0017.35,0005.20,0002.17
2024-03-11 14:23:00,SystemResetWarning,0825.9,5.00,000.00,019.5,018.7,000.0,028.0,021.2,07.4,0000.0,0017.30,0005.17,0002.18
2024-03-11 14:24:00,SystemResetWarning,0825.9,5.00,000.00,019.5,018.7,000.0,028.0,021.2,07.4,0000.0,0017.85,0005.16,0002.16
2024-03-11 14:25:00,SystemResetWarning,0825.9,5.00,000.00,019.5,018.7,000.0,028.0,021.2,06.8,0000.0,0018.43,0005.15,0002.14
2024-03-11 14:26:00,SystemResetWarning,0825.9,5.00,000.00,019.5,018.7,000.0,028.0,021.2,06.8,0000.0,0018.41,0005.14,0002.13
2024-03-11 14:27:00,SystemResetWarning,0825.9,5.00,000.00,019.5,018.7,000.0,028.0,021.2,07.2,0000.0,0018.17,0005.21,0002.12
2024-03-11 14:28:00,SystemResetWarning,0825.9,5.00,000.00,019.5,018.7,000.0,028.0,021.2,07.6,0000.0,0018.14,0005.26,0002.11
2024-03-11 14:29:00,SystemResetWarning,0825.8,5.00,000.00,019.5,018.7,000.0,028.0,021.2,07.7,0000.0,0018.32,0005.29,0002.11
2024-03-11 14:30:00,SystemResetWarning,0825.9,4.99,000.00,019.5,018.7,000.0,028.0,021.2,08.0,0000.0,0017.82,0005.29,0002.11
2024-03-11 14:31:00,SystemResetWarning,0825.8,5.00,000.00,019.4,018.6,000.0,028.0,021.2,08.0,0000.0,0016.81,0005.25,0002.10
2024-03-11 14:32:00,SystemResetWarning,0825.8,5.00,000.00,019.4,018.7,000.0,028.0,021.1,08.2,0000.0,0016.44,0005.26,0002.09
2024-03-11 14:33:00,SystemResetWarning,0825.8,5.00,000.00,019.4,018.7,000.0,028.0,021.1,08.1,0000.0,0016.57,0005.33,0002.09
2024-03-11 14:34:00,SystemResetWarning,0825.8,5.00,000.00,019.4,018.6,000.0,028.0,021.1,08.1,0000.0,0016.10,0005.30,0002.05
2024-03-11 14:35:00,SystemResetWarning,0825.8,5.01,000.00,019.4,018.6,000.0,028.0,021.1,08.1,0000.0,0016.27,0005.24,0002.04
2024-03-11 14:36:00,SystemResetWarning,0825.8,5.00,000.00,019.4,018.6,000.0,027.9,021.1,08.4,0000.0,0015.93,0005.19,0002.04
2024-03-11 14:37:00,SystemResetWarning,0825.8,4.98,000.00,019.4,018.6,000.0,027.9,021.1,08.4,0000.0,0015.97,0005.25,0002.06
2024-03-11 14:38:00,SystemResetWarning,0825.8,4.99,000.00,019.4,018.6,000.0,027.9,021.1,08.3,0000.0,0016.21,0005.34,0002.07
2024-03-11 14:39:00,SystemResetWarning,0825.8,5.00,000.00,019.4,018.6,000.0,027.9,021.1,08.4,0000.0,0016.16,0005.31,0002.07
2024-03-11 14:40:00,SystemResetWarning,0825.8,5.00,000.00,019.4,018.6,000.0,027.9,021.1,08.4,0000.0,0015.75,0005.25,0002.07
2024-03-11 14:41:00,SystemResetWarning,0825.8,5.00,000.00,019.4,018.6,000.0,027.9,021.1,08.4,0000.0,0015.43,0005.20,0002.07
2024-03-11 14:42:00,SystemResetWarning,0825.8,5.01,000.00,019.4,018.6,000.0,027.9,021.1,08.3,0000.0,0015.59,0005.17,0002.06
2024-03-11 14:43:00,SystemResetWarning,0825.8,5.00,000.00,019.4,018.6,000.0,027.9,021.1,08.3,0000.0,0015.29,0005.05,0002.07
2024-03-11 14:44:00,SystemResetWarning,0825.8,4.99,000.00,019.4,018.6,000.0,027.9,021.1,08.3,0000.0,0015.25,0005.05,0002.07
2024-03-11 14:45:00,SystemResetWarning,0825.7,4.99,000.00,019.4,018.7,000.0,027.9,021.1,08.4,0000.0,0014.91,0004.95,0002.07
2024-03-11 14:46:00,SystemResetWarning,0825.8,4.99,000.00,019.4,018.7,000.0,027.9,021.1,08.7,0000.0,0013.84,0004.90,0002.05
2024-03-11 14:47:00,SystemResetWarning,0825.8,5.00,000.00,019.4,018.6,000.0,027.9,021.1,08.9,0000.0,0013.55,0004.75,0002.01
2024-03-11 14:48:00,SystemResetWarning,0825.8,5.01,000.00,019.4,018.6,000.0,027.9,021.1,08.9,0000.0,0013.79,0004.59,0001.94
2024-03-11 14:49:00,SystemResetWarning,0825.8,5.00,000.00,019.4,018.6,000.0,027.9,021.1,08.8,0000.0,0013.48,0004.37,0001.88
2024-03-11 14:50:00,SystemResetWarning,0825.9,5.01,000.00,019.4,018.6,000.0,027.9,021.1,09.0,0000.0,0013.41,0004.21,0001.85
2024-03-11 14:51:00,SystemResetWarning,0825.8,4.99,000.00,019.4,018.6,000.0,027.9,021.1,08.7,0000.0,0014.07,0004.12,0001.81
2024-03-11 14:52:00,SystemResetWarning,0825.8,5.00,000.00,019.4,018.6,000.0,027.9,021.1,08.8,0000.0,0013.70,0004.04,0001.77
2024-03-11 14:53:00,SystemResetWarning,0825.8,5.00,000.00,019.4,018.6,000.0,027.9,021.1,08.8,0000.0,0013.13,0003.97,0001.73
2024-03-11 14:54:00,SystemResetWarning,0825.9,5.00,000.00,019.4,018.6,000.0,027.9,021.1,08.5,0000.0,0013.06,0003.95,0001.71
2024-03-11 14:55:00,SystemResetWarning,0825.9,5.00,000.00,019.4,018.6,000.0,027.9,021.1,08.5,0000.0,0012.91,0003.76,0001.68
2024-03-11 14:56:00,SystemResetWarning,0825.9,5.00,000.00,019.4,018.6,000.0,027.8,021.1,08.4,0000.0,0013.12,0003.66,0001.65
2024-03-11 14:57:00,SystemResetWarning,0825.9,5.00,000.00,019.4,018.6,000.0,027.8,021.1,08.4,0000.0,0013.50,0003.68,0001.63
2024-03-11 14:58:00,SystemResetWarning,0825.9,5.00,000.00,019.4,018.6,000.0,027.8,021.1,08.4,0000.0,0013.73,0003.77,0001.65
2024-03-11 14:59:00,SystemResetWarning,0825.9,5.00,000.00,019.4,018.7,000.0,027.8,021.1,08.4,0000.0,0013.52,0003.86,0001.69
